CW2274 Weather Reports


time (UTC)temp
F
wind
direction
speed
knots
gust
knots
rain 1hr
in
rain 24hr
in
rain mn
in
humidity
%
barometer
mb
20260902202516 92 301 0.9 7.0 0.00 0.00 0.00 44 1016.8
20260902202032 92 317 1.7 7.8 0.00 0.00 0.00 44 1016.7
20260902201527 93 15 2.6 7.8 0.00 0.00 0.00 44 1016.7
20260902201022 93 2 1.7 7.8 0.00 0.00 0.00 44 1016.7
20260902200518 95 309 1.7 7.8 0.00 0.00 0.00 42 1016.9
20260902200046 94 330 1.7 7.0 0.00 0.00 0.00 45 1016.9
20260902195022 94 1 1.7 5.2 0.00 0.00 0.00 46 1017.3
20260902194522 91 15 2.6 7.8 0.00 0.00 0.00 48 1017.3
20260902194018 91 40 3.5 7.8 0.00 0.00 0.00 47 1017.3
20260902193513 93 287 3.5 7.0 0.00 0.00 0.00 44 1017.4
20260902193028 93 287 2.6 6.1 0.00 0.00 0.00 45 1017.5
20260902192523 91 6 1.7 5.2 0.00 0.00 0.00 47 1017.7
20260902192019 92 327 0.9 7.0 0.00 0.00 0.00 47 1017.7
20260902191515 91 319 2.6 7.0 0.00 0.00 0.00 47 1017.9
20260902191014 92 359 2.6 7.8 0.00 0.00 0.00 45 1017.9
20260902190529 93 354 1.7 8.7 0.00 0.00 0.00 45 1017.8
20260902190037 92 350 3.5 8.7 0.00 0.00 0.00 46 1018.0
20260902185518 93 285 1.7 7.8 0.00 0.00 0.00 44 1018.0
20260902185014 94 284 4.3 7.8 0.00 0.00 0.00 43 1018.2
20260902184530 94 317 2.6 5.2 0.00 0.00 0.00 43 1018.2
20260902184025 92 306 1.7 5.2 0.00 0.00 0.00 46 1018.3
20260902183525 92 294 0.9 5.2 0.00 0.00 0.00 46 1018.4
20260902183020 94 288 1.7 7.0 0.00 0.00 0.00 44 1018.5
20260902182516 93 281 3.5 7.0 0.00 0.00 0.00 45 1018.5
20260902182032 90 339 1.7 5.2 0.00 0.00 0.00 48 1018.5
20260902181527 91 29 2.6 6.1 0.00 0.00 0.00 46 1018.6
20260902181023 92 356 3.5 6.1 0.00 0.00 0.00 47 1018.6
20260902180518 94 330 1.7 4.3 0.00 0.00 0.00 46 1018.7
20260902180030 91 330 1.7 4.3 0.00 0.00 0.00 50 1018.8
20260902175531 92 332 2.6 5.2 0.00 0.00 0.00 47 1018.9
20260902175027 92 289 0.9 5.2 0.00 0.00 0.00 47 1018.9
20260902174523 91 358 0.9 4.3 0.00 0.00 0.00 48 1019.0
20260902174019 91 358 2.6 4.3 0.00 0.00 0.00 49 1018.9
20260902173514 90 358 0.9 4.3 0.00 0.00 0.00 49 1019.0
20260902173030 90 342 2.6 4.3 0.00 0.00 0.00 50 1018.9
20260902172526 90 333 0.9 2.6 0.00 0.00 0.00 49 1018.9
20260902172026 90 333 1.7 2.6 0.00 0.00 0.00 49 1019.0
20260902171523 90 360 0.9 3.5 0.00 0.00 0.00 50 1019.0
20260902171019 90 360 1.7 3.5 0.00 0.00 0.00 50 1019.1
20260902170514 90 24 0.9 2.6 0.00 0.00 0.00 51 1019.0
20260902170041 89 27 0.9 4.3 0.00 0.00 0.00 50 1019.0
20260902165521 88 27 2.6 4.3 0.00 0.00 0.00 51 1019.0
20260902165016 88 75 1.7 2.6 0.00 0.00 0.00 54 1019.0
20260902164517 88 74 0.9 3.5 0.00 0.00 0.00 54 1019.0
20260902164013 87 75 1.7 3.5 0.00 0.00 0.00 54 1019.1
20260902163530 87 75 0.9 5.2 0.00 0.00 0.00 55 1019.1
20260902163026 87 75 1.7 5.2 0.00 0.00 0.00 57 1019.0
20260902162521 88 77 0.9 2.6 0.00 0.00 0.00 57 1019.0
20260902162015 86 77 0.9 3.5 0.00 0.00 0.00 56 1019.1
20260902161530 86 77 1.7 3.5 0.00 0.00 0.00 56 1019.1
20260902161030 86 79 1.7 3.5 0.00 0.00 0.00 57 1019.2
20260902160525 86 83 0.9 2.6 0.00 0.00 0.00 57 1019.1
20260902160033 86 84 1.7 4.3 0.00 0.00 0.00 58 1019.1
20260902155514 85 86 2.6 4.3 0.00 0.00 0.00 60 1019.0
20260902155030 84 96 1.7 4.3 0.00 0.00 0.00 61 1019.0
20260902154526 84 97 1.7 4.3 0.00 0.00 0.00 61 1019.0
20260902154023 83 98 2.6 4.3 0.00 0.00 0.00 61 1019.0
20260902153523 82 99 2.6 4.3 0.00 0.00 0.00 62 1019.0
20260902153020 82 102 2.6 3.5 0.00 0.00 0.00 63 1019.1
20260902152514 82 104 2.6 3.5 0.00 0.00 0.00 62 1019.0
20260902152029 82 104 1.7 3.5 0.00 0.00 0.00 64 1019.0
20260902151524 82 104 0.9 2.6 0.00 0.00 0.00 64 1019.0
20260902151020 81 104 0.9 2.6 0.00 0.00 0.00 65 1019.0
20260902150517 81 104 1.7 3.5 0.00 0.00 0.00 66 1018.9
20260902150028 81 105 1.7 3.5 0.00 0.00 0.00 65 1019.0
20260902145530 80 105 1.7 3.5 0.00 0.00 0.00 67 1018.9
20260902145026 80 105 2.6 4.3 0.00 0.00 0.00 68 1018.9
20260902144523 79 105 3.5 7.0 0.00 0.00 0.00 69 1018.9
20260902144020 79 105 2.6 7.0 0.00 0.00 0.00 69 1018.9
20260902143019 79 127 2.6 3.5 0.00 0.00 0.00 69 1018.9
20260902142519 79 127 1.7 3.5 0.00 0.00 0.00 69 1018.9
20260902142016 79 126 0.9 4.3 0.00 0.00 0.00 70 1018.9
20260902141532 78 126 1.7 5.2 0.00 0.00 0.00 69 1018.8
20260902141028 78 135 2.6 5.2 0.00 0.00 0.00 71 1018.9
20260902140523 78 169 1.7 3.5 0.00 0.00 0.00 72 1018.7
20260902140030 77 169 1.7 4.3 0.00 0.00 0.00 72 1018.5
20260902135531 77 169 2.6 4.3 0.00 0.00 0.00 74 1018.8
20260902135027 77 250 2.6 3.5 0.00 0.00 0.00 74 1018.6
20260902092526 77 250 0.0 1.7 0.00 0.00 0.00 76 1017.6
20260902092021 77 250 0.9 0.9 0.00 0.00 0.00 75 1017.7
20260902091520 77 250 0.9 0.9 0.00 0.00 0.00 74 1017.7
20260902091015 77 250 0.0 0.9 0.00 0.00 0.00 75 1017.5
20260902090529 77 250 0.0 0.9 0.00 0.00 0.00 74 1017.5
20260902090035 78 250 0.0 0.9 0.00 0.00 0.00 70 1017.5
20260902085515 78 250 0.0 1.7 0.00 0.00 0.00 70 1017.5
20260902085029 79 250 0.9 1.7 0.00 0.00 0.00 70 1017.5
20260902084523 78 250 0.9 1.7 0.00 0.00 0.00 71 1017.4
20260902084022 78 250 1.7 2.6 0.00 0.00 0.00 70 1017.5
20260902083516 79 250 0.9 3.5 0.00 0.00 0.00 66 1017.4
20260902083030 80 250 1.7 3.5 0.00 0.00 0.00 65 1017.4
20260902082523 80 249 1.7 7.0 0.00 0.00 0.00 65 1017.3
20260902082018 80 249 2.6 7.0 0.00 0.00 0.00 65 1017.3
20260902081512 80 258 2.6 6.1 0.00 0.00 0.00 66 1017.4
20260902081027 79 268 2.6 6.1 0.00 0.00 0.00 68 1017.4
20260902080521 79 271 2.6 5.2 0.00 0.00 0.00 69 1017.5
20260902080031 78 270 1.7 3.5 0.00 0.00 0.00 69 1017.5
20260902075531 78 270 0.9 1.7 0.00 0.00 0.00 72 1017.4
20260902075025 77 270 0.0 1.7 0.00 0.00 0.00 74 1017.2
20260902074519 77 270 0.0 0.9 0.00 0.00 0.00 75 1017.1
20260902074014 78 270 0.0 2.6 0.00 0.00 0.00 71 1017.3
20260902073528 78 270 0.9 2.6 0.00 0.00 0.00 71 1017.3
20260902073023 79 270 0.9 1.7 0.00 0.00 0.00 70 1017.3
20260902072523 79 270 0.0 2.6 0.00 0.00 0.00 70 1017.3
20260902072018 79 270 1.7 2.6 0.00 0.00 0.00 70 1017.3
20260902071512 79 270 1.7 2.6 0.00 0.00 0.00 70 1017.4
20260902071027 79 270 1.7 3.5 0.00 0.00 0.00 69 1017.3
20260902070521 80 270 1.7 3.5 0.00 0.00 0.00 68 1017.3
20260902070027 78 320 1.7 2.6 0.00 0.00 0.00 70 1017.3
20260902065526 78 320 0.9 1.7 0.00 0.00 0.00 71 1017.2
20260902065021 78 320 0.0 1.7 0.00 0.00 0.00 71 1017.2
20260902064520 78 320 0.9 1.7 0.00 0.00 0.00 72 1017.2
20260902064015 78 320 0.0 0.9 0.00 0.00 0.00 71 1017.2
20260902063529 78 320 0.0 1.7 0.00 0.00 0.00 73 1017.2
20260902063024 78 320 0.0 1.7 0.00 0.00 0.00 73 1017.2
20260902062520 79 320 0.9 1.7 0.00 0.00 0.00 69 1017.1
20260902062014 79 320 0.0 1.7 0.00 0.00 0.00 69 1017.0
20260902061529 79 320 0.0 1.7 0.00 0.00 0.00 71 1017.1
20260902061027 79 320 1.7 1.7 0.00 0.00 0.00 68 1017.1
20260902060521 79 320 0.9 1.7 0.00 0.00 0.00 68 1017.2
20260902060028 80 320 0.0 1.7 0.00 0.00 0.00 67 1017.0
20260902055528 80 320 0.9 1.7 0.00 0.00 0.00 66 1017.1
20260902055022 80 320 0.9 1.7 0.00 0.00 0.00 65 1017.1
20260902054517 80 320 0.9 1.7 0.00 0.00 0.00 64 1017.1
20260902054012 80 320 0.9 1.7 0.00 0.00 0.00 64 1017.1
20260902053526 80 320 0.9 1.7 0.00 0.00 0.00 64 1017.2
20260902053024 80 320 1.7 2.6 0.00 0.00 0.00 63 1017.2
20260902052520 81 320 0.9 2.6 0.00 0.00 0.00 63 1017.3
20260902052016 81 320 1.7 1.7 0.00 0.00 0.00 63 1017.3
20260902051530 81 320 0.9 1.7 0.00 0.00 0.00 64 1017.2
20260902051024 81 320 1.7 2.6 0.00 0.00 0.00 63 1017.3
20260902050519 81 320 1.7 2.6 0.00 0.00 0.00 63 1017.3
20260902050026 81 320 1.7 2.6 0.00 0.00 0.00 64 1017.3
20260902045530 81 320 1.7 2.6 0.00 0.00 0.00 64 1017.3
20260902045025 81 320 0.9 1.7 0.00 0.00 0.00 63 1017.3
20260902044519 81 320 0.9 1.7 0.00 0.00 0.00 63 1017.3
20260902044013 81 320 0.9 2.6 0.00 0.00 0.00 62 1017.3
20260902043528 81 320 1.7 4.3 0.00 0.00 0.00 62 1017.3
20260902043023 82 320 1.7 4.3 0.00 0.00 0.00 64 1017.3
20260902042517 82 320 1.7 2.6 0.00 0.00 0.00 63 1017.2
20260902042015 82 320 1.7 2.6 0.00 0.00 0.00 64 1017.2
20260902041530 82 320 1.7 2.6 0.00 0.00 0.00 63 1017.2
20260902041025 82 320 0.9 2.6 0.00 0.00 0.00 63 1017.3
20260902040520 82 320 1.7 2.6 0.00 0.00 0.00 65 1017.1
20260902040026 82 320 0.9 1.7 0.00 0.00 0.00 65 1017.0
20260902035526 82 320 0.9 1.7 0.00 0.00 0.00 66 1016.9
20260902035020 82 320 1.7 1.7 0.00 0.00 0.00 65 1017.1
20260902034515 82 320 0.9 1.7 0.00 0.00 0.00 63 1017.0
20260902034013 82 320 0.9 1.7 0.00 0.00 0.00 63 1016.9
20260902033527 83 320 0.9 1.7 0.00 0.00 0.00 62 1016.8
20260902033021 83 320 0.9 2.6 0.00 0.00 0.00 62 1016.7
20260902032515 83 320 1.7 2.6 0.00 0.00 0.00 62 1016.5
20260902032030 83 320 0.9 1.7 0.00 0.00 0.00 62 1016.5
20260902031523 84 320 0.9 1.7 0.00 0.00 0.00 61 1016.3
20260902031018 84 320 0.9 1.7 0.00 0.00 0.00 61 1016.2
20260902030516 84 320 0.9 1.7 0.00 0.00 0.00 60 1016.1
20260902030043 84 320 1.7 4.3 0.00 0.00 0.00 58 1016.0
20260902025522 85 320 1.7 4.3 0.00 0.00 0.00 58 1015.9
20260902025016 85 320 1.7 4.3 0.00 0.00 0.00 58 1015.6
20260902024530 85 320 0.9 2.6 0.00 0.00 0.00 57 1015.6
20260902024024 85 320 1.7 2.6 0.00 0.00 0.00 58 1015.7
20260902023518 85 320 1.7 1.7 0.00 0.00 0.00 57 1015.5
20260902023032 85 320 0.9 1.7 0.00 0.00 0.00 55 1015.5
20260902022531 86 320 0.9 1.7 0.00 0.00 0.00 53 1015.4
20260902022025 87 320 0.9 1.7 0.00 0.00 0.00 51 1015.3
20260902021520 87 320 0.9 1.7 0.00 0.00 0.00 51 1015.3
20260902021016 87 320 0.9 1.7 0.00 0.00 0.00 51 1015.2
20260902020530 87 320 0.9 1.7 0.00 0.00 0.00 50 1015.2
20260902020036 87 320 0.0 1.7 0.00 0.00 0.00 49 1015.0
20260902015516 87 320 0.9 1.7 0.00 0.00 0.00 48 1015.0
20260902015015 88 320 0.9 2.6 0.00 0.00 0.00 48 1014.9
20260902014530 88 320 0.9 2.6 0.00 0.00 0.00 47 1014.9
20260902014024 88 320 0.0 4.3 0.00 0.00 0.00 47 1014.9
20260902013519 89 308 1.7 4.3 0.00 0.00 0.00 46 1014.9
20260902013013 89 308 0.9 2.6 0.00 0.00 0.00 47 1014.9
20260902012528 89 303 0.9 2.6 0.00 0.00 0.00 46 1015.0
20260902012022 89 302 0.9 3.5 0.00 0.00 0.00 45 1015.0
20260902011517 90 302 0.9 6.1 0.00 0.00 0.00 44 1015.0
20260902011016 90 295 1.7 6.1 0.00 0.00 0.00 43 1014.8
20260902010531 90 310 1.7 4.3 0.00 0.00 0.00 42 1014.8
20260902010038 90 317 0.9 2.6 0.00 0.00 0.00 40 1014.7
20260902005517 91 317 0.9 3.5 0.00 0.00 0.00 40 1014.7
20260902005031 91 317 1.7 6.1 0.00 0.00 0.00 38 1014.8
20260902004525 91 293 2.6 6.1 0.00 0.00 0.00 39 1014.7
20260902004019 91 320 1.7 6.1 0.00 0.00 0.00 37 1014.7
20260902003518 92 317 1.7 6.1 0.00 0.00 0.00 37 1014.8
20260902003032 92 315 1.7 4.3 0.00 0.00 0.00 37 1014.9
20260902002526 91 320 0.9 7.0 0.00 0.00 0.00 38 1015.0
20260902002020 92 318 1.7 7.0 0.00 0.00 0.00 37 1015.0
20260902001514 92 310 1.7 4.3 0.00 0.00 0.00 38 1015.0
20260902001029 92 351 1.7 7.0 0.00 0.00 0.00 39 1015.1
20260902000523 92 288 1.7 7.0 0.00 0.00 0.00 38 1015.0
20260902000029 93 302 2.6 8.7 0.00 0.00 0.00 37 1015.1
20260901235533 93 287 3.5 8.7 0.00 0.00 0.00 37 1015.1
20260901235026 92 300 2.6 4.3 0.00 0.00 0.00 38 1015.2
20260901234520 92 302 1.7 4.3 0.00 0.00 0.00 39 1015.2
20260901234014 93 300 2.6 4.3 0.00 0.00 0.00 38 1015.2
20260901233528 93 308 1.7 5.2 0.00 0.00 0.00 39 1015.2
20260901233022 93 321 1.7 5.2 0.00 0.00 0.00 39 1015.3
20260901232516 92 356 2.6 5.2 0.00 0.00 0.00 39 1015.4
20260901232014 93 298 1.7 6.1 0.00 0.00 0.00 40 1015.4
20260901231528 94 294 2.6 6.1 0.00 0.00 0.00 41 1015.3
20260901231023 93 321 1.7 5.2 0.00 0.00 0.00 41 1015.6
20260901230517 93 293 0.9 3.5 0.00 0.00 0.00 41 1015.4
20260901230044 93 311 1.7 4.3 0.00 0.00 0.00 40 1015.5
20260901225522 93 309 1.7 4.3 0.00 0.00 0.00 40 1015.5
20260901225017 93 296 0.9 8.7 0.00 0.00 0.00 40 1015.6
20260901224531 94 290 3.5 8.7 0.00 0.00 0.00 41 1015.6
20260901224030 93 273 3.5 7.0 0.00 0.00 0.00 40 1015.7
20260901223526 92 352 1.7 5.2 0.00 0.00 0.00 42 1015.6
20260901223021 92 5 1.7 6.1 0.00 0.00 0.00 42 1015.8
20260901222517 92 11 3.5 6.1 0.00 0.00 0.00 42 1015.8
20260901222032 92 23 3.5 6.1 0.00 0.00 0.00 42 1015.8
20260901221527 92 1 3.5 6.1 0.00 0.00 0.00 42 1015.8
20260901221022 92 4 0.9 7.0 0.00 0.00 0.00 44 1015.9
20260901220521 91 43 3.5 7.8 0.00 0.00 0.00 43 1015.9
20260901220028 92 9 3.5 7.8 0.00 0.00 0.00 42 1016.1
20260901215528 92 9 2.6 7.0 0.00 0.00 0.00 43 1016.2
20260901215023 91 68 3.5 7.0 0.00 0.00 0.00 43 1016.3
20260901214516 91 40 3.5 7.0 0.00 0.00 0.00 44 1016.4
20260901214031 92 19 2.6 6.1 0.00 0.00 0.00 43 1016.4
20260901213525 92 354 2.6 7.0 0.00 0.00 0.00 42 1016.5
20260901213019 93 2 1.7 6.1 0.00 0.00 0.00 41 1016.6
20260901212518 92 336 2.6 4.3 0.00 0.00 0.00 43 1016.7
20260901212031 91 335 1.7 5.2 0.00 0.00 0.00 42 1016.7
20260901211526 92 335 2.6 6.1 0.00 0.00 0.00 42 1016.9
20260901211021 92 323 1.7 5.2 0.00 0.00 0.00 41 1016.8
20260901210516 93 318 1.7 7.8 0.00 0.00 0.00 41 1016.9
20260901210042 92 6 1.7 7.8 0.00 0.00 0.00 42 1016.9
20260901205523 93 277 2.6 6.1 0.00 0.07 0.00 40 1017.1
20260901205022 92 277 2.6 6.1 0.00 0.07 0.00 42 1017.1
20260901204518 90 225 2.6 5.2 0.00 0.07 0.00 43 1017.2
20260901203515 92 310 0.9 6.1 0.00 0.07 0.00 41 1017.3
20260901203030 91 352 0.9 2.6 0.00 0.07 0.00 42 1017.4
20260901202526 90 352 0.9 3.5 0.00 0.07 0.00 42 1017.5